Year,Month,Day,Hour,Minute,Value (Times are PST for insolation in W/m^2)
2014,06,27,00,00,0.00
2014,06,27,00,01,0.00
2014,06,27,00,02,0.00
2014,06,27,00,03,0.00
2014,06,27,00,04,0.00
2014,06,27,00,05,0.00
2014,06,27,00,06,0.00
2014,06,27,00,07,0.00
2014,06,27,00,08,0.00
2014,06,27,00,09,0.00
2014,06,27,00,10,0.00
2014,06,27,00,11,0.00
2014,06,27,00,12,0.00
2014,06,27,00,13,0.00
2014,06,27,00,14,0.00
2014,06,27,00,15,0.00
2014,06,27,00,16,0.00
2014,06,27,00,17,0.00
2014,06,27,00,18,0.00
2014,06,27,00,19,0.00
2014,06,27,00,20,0.00
2014,06,27,00,21,0.00
2014,06,27,00,22,0.00
2014,06,27,00,23,0.00
2014,06,27,00,24,0.00
2014,06,27,00,25,0.00
2014,06,27,00,26,0.00
2014,06,27,00,27,0.00
2014,06,27,00,28,0.00
2014,06,27,00,29,0.00
2014,06,27,00,30,0.00
2014,06,27,00,31,0.00
2014,06,27,00,32,0.00
2014,06,27,00,33,0.00
2014,06,27,00,34,0.00
2014,06,27,00,35,0.00
2014,06,27,00,36,0.00
2014,06,27,00,37,0.00
2014,06,27,00,38,0.00
2014,06,27,00,39,0.00
2014,06,27,00,40,0.00
2014,06,27,00,41,0.00
2014,06,27,00,42,0.00
2014,06,27,00,43,0.00
2014,06,27,00,44,0.00
2014,06,27,00,45,0.00
2014,06,27,00,46,0.00
2014,06,27,00,47,0.00
2014,06,27,00,48,0.00
2014,06,27,00,49,0.00
2014,06,27,00,50,0.00
2014,06,27,00,51,0.00
2014,06,27,00,52,0.00
2014,06,27,00,53,0.00
2014,06,27,00,54,0.00
2014,06,27,00,55,0.00
2014,06,27,00,56,0.00
2014,06,27,00,57,0.00
2014,06,27,00,58,0.00
2014,06,27,00,59,0.00
2014,06,27,01,00,0.00
2014,06,27,01,01,0.00
2014,06,27,01,02,0.00
2014,06,27,01,03,0.00
2014,06,27,01,04,0.00
2014,06,27,01,05,0.00
2014,06,27,01,06,0.00
2014,06,27,01,07,0.00
2014,06,27,01,08,0.00
2014,06,27,01,09,0.00
2014,06,27,01,10,0.00
2014,06,27,01,11,0.00
2014,06,27,01,12,0.00
2014,06,27,01,13,0.00
2014,06,27,01,14,0.00
2014,06,27,01,15,0.00
2014,06,27,01,16,0.00
2014,06,27,01,17,0.00
2014,06,27,01,18,0.00
2014,06,27,01,19,0.00
2014,06,27,01,20,0.00
2014,06,27,01,21,0.00
2014,06,27,01,22,0.00
2014,06,27,01,23,0.00
2014,06,27,01,24,0.00
2014,06,27,01,25,0.00
2014,06,27,01,26,0.00
2014,06,27,01,27,0.00
2014,06,27,01,28,0.00
2014,06,27,01,29,0.00
2014,06,27,01,30,0.00
2014,06,27,01,31,0.00
2014,06,27,01,32,0.00
2014,06,27,01,33,0.00
2014,06,27,01,34,0.00
2014,06,27,01,35,0.00
2014,06,27,01,36,0.00
2014,06,27,01,37,0.00
2014,06,27,01,38,0.00
2014,06,27,01,39,0.00
2014,06,27,01,40,0.00
2014,06,27,01,41,0.00
2014,06,27,01,42,0.00
2014,06,27,01,43,0.00
2014,06,27,01,44,0.00
2014,06,27,01,45,0.00
2014,06,27,01,46,0.00
2014,06,27,01,47,0.00
2014,06,27,01,48,0.00
2014,06,27,01,49,0.00
2014,06,27,01,50,0.00
2014,06,27,01,51,0.00
2014,06,27,01,52,0.00
2014,06,27,01,53,0.00
2014,06,27,01,54,0.00
2014,06,27,01,55,0.00
2014,06,27,01,56,0.00
2014,06,27,01,57,0.00
2014,06,27,01,58,0.00
2014,06,27,01,59,0.00
2014,06,27,02,00,0.00
2014,06,27,02,01,0.00
2014,06,27,02,02,0.00
2014,06,27,02,03,0.00
2014,06,27,02,04,0.00
2014,06,27,02,05,0.00
2014,06,27,02,06,0.00
2014,06,27,02,07,0.00
2014,06,27,02,08,0.00
2014,06,27,02,09,0.00
2014,06,27,02,10,0.00
2014,06,27,02,11,0.00
2014,06,27,02,12,0.00
2014,06,27,02,13,0.00
2014,06,27,02,14,0.00
2014,06,27,02,15,0.00
2014,06,27,02,16,0.00
2014,06,27,02,17,0.00
2014,06,27,02,18,0.00
2014,06,27,02,19,0.00
2014,06,27,02,20,0.00
2014,06,27,02,21,0.00
2014,06,27,02,22,0.00
2014,06,27,02,23,0.00
2014,06,27,02,24,0.00
2014,06,27,02,25,0.00
2014,06,27,02,26,0.00
2014,06,27,02,27,0.00
2014,06,27,02,28,0.00
2014,06,27,02,29,0.00
2014,06,27,02,30,0.00
2014,06,27,02,31,0.00
2014,06,27,02,32,0.00
2014,06,27,02,33,0.00
2014,06,27,02,34,0.00
2014,06,27,02,35,0.00
2014,06,27,02,36,0.00
2014,06,27,02,37,0.00
2014,06,27,02,38,0.00
2014,06,27,02,39,0.00
2014,06,27,02,40,0.00
2014,06,27,02,41,0.00
2014,06,27,02,42,0.00
2014,06,27,02,43,0.00
2014,06,27,02,44,0.00
2014,06,27,02,45,0.00
2014,06,27,02,46,0.00
2014,06,27,02,47,0.00
2014,06,27,02,48,0.00
2014,06,27,02,49,0.00
2014,06,27,02,50,0.00
2014,06,27,02,51,0.00
2014,06,27,02,52,0.00
2014,06,27,02,53,0.00
2014,06,27,02,54,0.00
2014,06,27,02,55,0.00
2014,06,27,02,56,0.00
2014,06,27,02,57,0.00
2014,06,27,02,58,0.00
2014,06,27,02,59,0.00
2014,06,27,03,00,0.00
2014,06,27,03,01,0.00
2014,06,27,03,02,0.00
2014,06,27,03,03,0.00
2014,06,27,03,04,0.00
2014,06,27,03,05,0.00
2014,06,27,03,06,0.00
2014,06,27,03,07,0.00
2014,06,27,03,08,0.00
2014,06,27,03,09,0.00
2014,06,27,03,10,0.00
2014,06,27,03,11,0.00
2014,06,27,03,12,0.00
2014,06,27,03,13,0.00
2014,06,27,03,14,0.00
2014,06,27,03,15,0.00
2014,06,27,03,16,0.00
2014,06,27,03,17,0.00
2014,06,27,03,18,0.00
2014,06,27,03,19,0.00
2014,06,27,03,20,0.00
2014,06,27,03,21,0.00
2014,06,27,03,22,0.00
2014,06,27,03,23,0.00
2014,06,27,03,24,0.00
2014,06,27,03,25,0.00
2014,06,27,03,26,0.00
2014,06,27,03,27,0.00
2014,06,27,03,28,0.00
2014,06,27,03,29,0.00
2014,06,27,03,30,0.00
2014,06,27,03,31,0.00
2014,06,27,03,32,0.00
2014,06,27,03,33,0.00
2014,06,27,03,34,0.00
2014,06,27,03,35,0.00
2014,06,27,03,36,0.00
2014,06,27,03,37,0.00
2014,06,27,03,38,0.00
2014,06,27,03,39,0.00
2014,06,27,03,40,0.00
2014,06,27,03,41,0.00
2014,06,27,03,42,0.00
2014,06,27,03,43,0.00
2014,06,27,03,44,0.00
2014,06,27,03,45,0.00
2014,06,27,03,46,0.00
2014,06,27,03,47,0.00
2014,06,27,03,48,0.00
2014,06,27,03,49,0.00
2014,06,27,03,50,0.00
2014,06,27,03,51,0.00
2014,06,27,03,52,0.00
2014,06,27,03,53,0.00
2014,06,27,03,54,0.00
2014,06,27,03,55,0.00
2014,06,27,03,56,0.00
2014,06,27,03,57,0.00
2014,06,27,03,58,0.00
2014,06,27,03,59,0.00
2014,06,27,04,00,0.00
2014,06,27,04,01,0.00
2014,06,27,04,02,0.00
2014,06,27,04,03,0.00
2014,06,27,04,04,0.00
2014,06,27,04,05,0.00
2014,06,27,04,06,0.00
2014,06,27,04,07,0.00
2014,06,27,04,08,0.00
2014,06,27,04,09,0.00
2014,06,27,04,10,0.00
2014,06,27,04,11,0.00
2014,06,27,04,12,0.00
2014,06,27,04,13,0.00
2014,06,27,04,14,0.00
2014,06,27,04,15,0.00
2014,06,27,04,16,0.00
2014,06,27,04,17,0.00
2014,06,27,04,18,0.00
2014,06,27,04,19,0.00
2014,06,27,04,20,0.00
2014,06,27,04,21,0.00
2014,06,27,04,22,0.00
2014,06,27,04,23,0.00
2014,06,27,04,24,0.00
2014,06,27,04,25,0.00
2014,06,27,04,26,0.00
2014,06,27,04,27,0.00
2014,06,27,04,28,0.00
2014,06,27,04,29,0.00
2014,06,27,04,30,0.00
2014,06,27,04,31,0.00
2014,06,27,04,32,0.00
2014,06,27,04,33,0.00
2014,06,27,04,34,0.00
2014,06,27,04,35,0.00
2014,06,27,04,36,0.00
2014,06,27,04,37,0.00
2014,06,27,04,38,0.00
2014,06,27,04,39,0.00
2014,06,27,04,40,0.00
2014,06,27,04,41,0.00
2014,06,27,04,42,0.00
2014,06,27,04,43,0.00
2014,06,27,04,44,0.00
2014,06,27,04,45,0.00
2014,06,27,04,46,0.00
2014,06,27,04,47,0.00
2014,06,27,04,48,0.00
2014,06,27,04,49,0.00
2014,06,27,04,50,0.00
2014,06,27,04,51,0.00
2014,06,27,04,52,0.00
2014,06,27,04,53,0.00
2014,06,27,04,54,0.00
2014,06,27,04,55,0.00
2014,06,27,04,56,0.00
2014,06,27,04,57,0.00
2014,06,27,04,58,0.00
2014,06,27,04,59,0.00
2014,06,27,05,00,0.00
2014,06,27,05,01,0.00
2014,06,27,05,02,0.00
2014,06,27,05,03,0.00
2014,06,27,05,04,0.00
2014,06,27,05,05,0.00
2014,06,27,05,06,0.00
2014,06,27,05,07,0.00
2014,06,27,05,08,0.00
2014,06,27,05,09,0.00
2014,06,27,05,10,0.00
2014,06,27,05,11,0.00
2014,06,27,05,12,0.00
2014,06,27,05,13,0.00
2014,06,27,05,14,0.00
2014,06,27,05,15,0.00
2014,06,27,05,16,0.00
2014,06,27,05,17,0.00
2014,06,27,05,18,0.00
2014,06,27,05,19,0.00
2014,06,27,05,20,0.00
2014,06,27,05,21,0.00
2014,06,27,05,22,0.00
2014,06,27,05,23,0.00
2014,06,27,05,24,0.00
2014,06,27,05,25,0.00
2014,06,27,05,26,0.00
2014,06,27,05,27,0.00
2014,06,27,05,28,0.00
2014,06,27,05,29,0.00
2014,06,27,05,30,0.00
2014,06,27,05,31,0.00
2014,06,27,05,32,0.00
2014,06,27,05,33,0.00
2014,06,27,05,34,0.00
2014,06,27,05,35,0.00
2014,06,27,05,36,0.00
2014,06,27,05,37,0.00
2014,06,27,05,38,0.00
2014,06,27,05,39,0.00
2014,06,27,05,40,0.00
2014,06,27,05,41,0.00
2014,06,27,05,42,0.00
2014,06,27,05,43,0.00
2014,06,27,05,44,0.00
2014,06,27,05,45,0.00
2014,06,27,05,46,0.00
2014,06,27,05,47,0.00
2014,06,27,05,48,1.20
2014,06,27,05,49,5.00
2014,06,27,05,50,5.00
2014,06,27,05,51,5.00
2014,06,27,05,52,6.70
2014,06,27,05,53,7.20
2014,06,27,05,54,9.00
2014,06,27,05,55,9.80
2014,06,27,05,56,11.60
2014,06,27,05,57,12.00
2014,06,27,05,58,12.00
2014,06,27,05,59,14.00
2014,06,27,06,00,14.50
2014,06,27,06,01,16.00
2014,06,27,06,02,17.20
2014,06,27,06,03,18.70
2014,06,27,06,04,20.70
2014,06,27,06,05,23.30
2014,06,27,06,06,25.30
2014,06,27,06,07,26.90
2014,06,27,06,08,29.20
2014,06,27,06,09,31.50
2014,06,27,06,10,31.90
2014,06,27,06,11,30.00
2014,06,27,06,12,29.40
2014,06,27,06,13,27.00
2014,06,27,06,14,26.00
2014,06,27,06,15,23.60
2014,06,27,06,16,22.90
2014,06,27,06,17,20.60
2014,06,27,06,18,18.70
2014,06,27,06,19,17.00
2014,06,27,06,20,16.00
2014,06,27,06,21,16.00
2014,06,27,06,22,16.00
2014,06,27,06,23,16.40
2014,06,27,06,24,18.00
2014,06,27,06,25,18.50
2014,06,27,06,26,20.40
2014,06,27,06,27,22.60
2014,06,27,06,28,25.00
2014,06,27,06,29,26.40
2014,06,27,06,30,28.70
2014,06,27,06,31,31.00
2014,06,27,06,32,32.00
2014,06,27,06,33,36.00
2014,06,27,06,34,37.20
2014,06,27,06,35,39.20
2014,06,27,06,36,40.70
2014,06,27,06,37,43.10
2014,06,27,06,38,46.10
2014,06,27,06,39,52.10
2014,06,27,06,40,56.20
2014,06,27,06,41,58.00
2014,06,27,06,42,57.20
2014,06,27,06,43,54.20
2014,06,27,06,44,51.50
2014,06,27,06,45,49.30
2014,06,27,06,46,46.50
2014,06,27,06,47,43.40
2014,06,27,06,48,40.70
2014,06,27,06,49,39.00
2014,06,27,06,50,37.60
2014,06,27,06,51,37.00
2014,06,27,06,52,39.00
2014,06,27,06,53,39.30
2014,06,27,06,54,40.00
2014,06,27,06,55,40.00
2014,06,27,06,56,41.60
2014,06,27,06,57,43.90
2014,06,27,06,58,46.20
2014,06,27,06,59,47.70
2014,06,27,07,00,49.00
2014,06,27,07,01,50.30
2014,06,27,07,02,51.00
2014,06,27,07,03,46.20
2014,06,27,07,04,37.80
2014,06,27,07,05,31.90
2014,06,27,07,06,27.90
2014,06,27,07,07,25.40
2014,06,27,07,08,25.00
2014,06,27,07,09,26.20
2014,06,27,07,10,28.50
2014,06,27,07,11,30.70
2014,06,27,07,12,32.00
2014,06,27,07,13,34.10
2014,06,27,07,14,36.60
2014,06,27,07,15,40.00
2014,06,27,07,16,42.00
2014,06,27,07,17,42.00
2014,06,27,07,18,42.00
2014,06,27,07,19,42.00
2014,06,27,07,20,42.00
2014,06,27,07,21,42.00
2014,06,27,07,22,42.50
2014,06,27,07,23,44.80
2014,06,27,07,24,46.60
2014,06,27,07,25,48.40
2014,06,27,07,26,49.00
2014,06,27,07,27,53.20
2014,06,27,07,28,54.60
2014,06,27,07,29,56.00
2014,06,27,07,30,54.80
2014,06,27,07,31,53.30
2014,06,27,07,32,49.60
2014,06,27,07,33,45.70
2014,06,27,07,34,44.00
2014,06,27,07,35,44.00
2014,06,27,07,36,45.20
2014,06,27,07,37,44.50
2014,06,27,07,38,44.00
2014,06,27,07,39,43.60
2014,06,27,07,40,41.40
2014,06,27,07,41,39.50
2014,06,27,07,42,39.00
2014,06,27,07,43,37.40
2014,06,27,07,44,37.00
2014,06,27,07,45,37.00
2014,06,27,07,46,37.70
2014,06,27,07,47,39.50
2014,06,27,07,48,40.00
2014,06,27,07,49,39.20
2014,06,27,07,50,38.80
2014,06,27,07,51,38.20
2014,06,27,07,52,43.40
2014,06,27,07,53,45.00
2014,06,27,07,54,40.80
2014,06,27,07,55,39.80
2014,06,27,07,56,36.80
2014,06,27,07,57,36.20
2014,06,27,07,58,41.60
2014,06,27,07,59,46.80
2014,06,27,08,00,50.30
2014,06,27,08,01,43.30
2014,06,27,08,02,40.10
2014,06,27,08,03,48.10
2014,06,27,08,04,50.50
2014,06,27,08,05,47.00
2014,06,27,08,06,48.40
2014,06,27,08,07,46.30
2014,06,27,08,08,34.00
2014,06,27,08,09,27.40
2014,06,27,08,10,26.00
2014,06,27,08,11,26.00
2014,06,27,08,12,27.50
2014,06,27,08,13,31.40
2014,06,27,08,14,32.50
2014,06,27,08,15,33.50
2014,06,27,08,16,30.00
2014,06,27,08,17,27.60
2014,06,27,08,18,29.00
2014,06,27,08,19,31.90
2014,06,27,08,20,33.40
2014,06,27,08,21,33.40
2014,06,27,08,22,33.50
2014,06,27,08,23,39.00
2014,06,27,08,24,37.60
2014,06,27,08,25,33.50
2014,06,27,08,26,35.00
2014,06,27,08,27,34.00
2014,06,27,08,28,36.70
2014,06,27,08,29,46.50
2014,06,27,08,30,49.00
2014,06,27,08,31,43.50
2014,06,27,08,32,37.40
2014,06,27,08,33,39.00
2014,06,27,08,34,37.90
2014,06,27,08,35,35.60
2014,06,27,08,36,32.60
2014,06,27,08,37,32.70
2014,06,27,08,38,28.80
2014,06,27,08,39,25.40
2014,06,27,08,40,26.00
2014,06,27,08,41,25.30
2014,06,27,08,42,25.80
2014,06,27,08,43,25.00
2014,06,27,08,44,24.40
2014,06,27,08,45,22.20
2014,06,27,08,46,21.00
2014,06,27,08,47,21.00
2014,06,27,08,48,22.80
2014,06,27,08,49,19.00
2014,06,27,08,50,19.60
2014,06,27,08,51,22.60
2014,06,27,08,52,25.50
2014,06,27,08,53,26.00
2014,06,27,08,54,27.80
2014,06,27,08,55,30.30
2014,06,27,08,56,32.30
2014,06,27,08,57,32.50
2014,06,27,08,58,32.60
2014,06,27,08,59,30.80
2014,06,27,09,00,32.70
2014,06,27,09,01,30.60
2014,06,27,09,02,33.60
2014,06,27,09,03,34.10
2014,06,27,09,04,33.00
2014,06,27,09,05,32.20
2014,06,27,09,06,40.80
2014,06,27,09,07,38.60
2014,06,27,09,08,35.60
2014,06,27,09,09,32.50
2014,06,27,09,10,32.00
2014,06,27,09,11,32.80
2014,06,27,09,12,41.70
2014,06,27,09,13,43.00
2014,06,27,09,14,39.60
2014,06,27,09,15,39.50
2014,06,27,09,16,43.90
2014,06,27,09,17,46.00
2014,06,27,09,18,39.30
2014,06,27,09,19,39.00
2014,06,27,09,20,38.20
2014,06,27,09,21,38.10
2014,06,27,09,22,34.90
2014,06,27,09,23,34.60
2014,06,27,09,24,35.50
2014,06,27,09,25,39.10
2014,06,27,09,26,37.80
2014,06,27,09,27,40.70
2014,06,27,09,28,42.00
2014,06,27,09,29,46.20
2014,06,27,09,30,47.40
2014,06,27,09,31,51.60
2014,06,27,09,32,54.30
2014,06,27,09,33,53.20
2014,06,27,09,34,47.20
2014,06,27,09,35,52.00
2014,06,27,09,36,52.20
2014,06,27,09,37,48.40
2014,06,27,09,38,54.20
2014,06,27,09,39,58.80
2014,06,27,09,40,56.00
2014,06,27,09,41,65.80
2014,06,27,09,42,57.80
2014,06,27,09,43,66.40
2014,06,27,09,44,66.00
2014,06,27,09,45,52.90
2014,06,27,09,46,46.20
2014,06,27,09,47,47.30
2014,06,27,09,48,51.60
2014,06,27,09,49,56.80
2014,06,27,09,50,60.00
2014,06,27,09,51,56.70
2014,06,27,09,52,59.20
2014,06,27,09,53,61.70
2014,06,27,09,54,58.00
2014,06,27,09,55,62.40
2014,06,27,09,56,74.50
2014,06,27,09,57,79.00
2014,06,27,09,58,71.90
2014,06,27,09,59,71.60
2014,06,27,10,00,64.20
2014,06,27,10,01,58.40
2014,06,27,10,02,49.80
2014,06,27,10,03,51.90
2014,06,27,10,04,59.10
2014,06,27,10,05,51.60
2014,06,27,10,06,38.20
2014,06,27,10,07,32.60
2014,06,27,10,08,32.00
2014,06,27,10,09,27.80
2014,06,27,10,10,25.20
2014,06,27,10,11,26.90
2014,06,27,10,12,36.20
2014,06,27,10,13,45.10
2014,06,27,10,14,45.70
2014,06,27,10,15,46.30
2014,06,27,10,16,46.00
2014,06,27,10,17,36.70
2014,06,27,10,18,36.50
2014,06,27,10,19,42.70
2014,06,27,10,20,52.90
2014,06,27,10,21,52.80
2014,06,27,10,22,51.00
2014,06,27,10,23,73.30
2014,06,27,10,24,81.70
2014,06,27,10,25,78.10
2014,06,27,10,26,72.00
2014,06,27,10,27,64.90
2014,06,27,10,28,60.50
2014,06,27,10,29,64.40
2014,06,27,10,30,64.80
2014,06,27,10,31,70.90
2014,06,27,10,32,70.70
2014,06,27,10,33,90.00
2014,06,27,10,34,108.00
2014,06,27,10,35,99.00
2014,06,27,10,36,83.70
2014,06,27,10,37,83.00
2014,06,27,10,38,80.40
2014,06,27,10,39,71.90
2014,06,27,10,40,67.30
2014,06,27,10,41,63.80
2014,06,27,10,42,51.20
2014,06,27,10,43,48.10
2014,06,27,10,44,49.00
2014,06,27,10,45,49.00
2014,06,27,10,46,53.00
2014,06,27,10,47,53.80
2014,06,27,10,48,55.80
2014,06,27,10,49,68.80
2014,06,27,10,50,73.20
2014,06,27,10,51,63.50
2014,06,27,10,52,56.70
2014,06,27,10,53,49.00
2014,06,27,10,54,50.70
2014,06,27,10,55,51.90
2014,06,27,10,56,49.50
2014,06,27,10,57,46.30
2014,06,27,10,58,47.30
2014,06,27,10,59,48.30
2014,06,27,11,00,45.70
2014,06,27,11,01,44.00
2014,06,27,11,02,48.90
2014,06,27,11,03,65.20
2014,06,27,11,04,60.40
2014,06,27,11,05,53.70
2014,06,27,11,06,54.30
2014,06,27,11,07,60.40
2014,06,27,11,08,66.00
2014,06,27,11,09,71.20
2014,06,27,11,10,65.20
2014,06,27,11,11,55.50
2014,06,27,11,12,60.00
2014,06,27,11,13,64.60
2014,06,27,11,14,55.20
2014,06,27,11,15,51.40
2014,06,27,11,16,53.20
2014,06,27,11,17,49.40
2014,06,27,11,18,47.00
2014,06,27,11,19,50.90
2014,06,27,11,20,53.00
2014,06,27,11,21,53.30
2014,06,27,11,22,56.80
2014,06,27,11,23,66.10
2014,06,27,11,24,76.60
2014,06,27,11,25,76.30
2014,06,27,11,26,84.00
2014,06,27,11,27,81.20
2014,06,27,11,28,82.80
2014,06,27,11,29,88.80
2014,06,27,11,30,86.20
2014,06,27,11,31,87.90
2014,06,27,11,32,90.80
2014,06,27,11,33,97.10
2014,06,27,11,34,96.80
2014,06,27,11,35,96.20
2014,06,27,11,36,101.20
2014,06,27,11,37,105.50
2014,06,27,11,38,114.70
2014,06,27,11,39,112.10
2014,06,27,11,40,87.60
2014,06,27,11,41,81.10
2014,06,27,11,42,92.40
2014,06,27,11,43,92.80
2014,06,27,11,44,90.10
2014,06,27,11,45,78.70
2014,06,27,11,46,67.60
2014,06,27,11,47,65.00
2014,06,27,11,48,60.60
2014,06,27,11,49,65.90
2014,06,27,11,50,69.20
2014,06,27,11,51,74.20
2014,06,27,11,52,80.20
2014,06,27,11,53,74.00
2014,06,27,11,54,72.70
2014,06,27,11,55,66.80
2014,06,27,11,56,67.50
2014,06,27,11,57,59.00
2014,06,27,11,58,62.00
2014,06,27,11,59,63.50
2014,06,27,12,00,69.60
2014,06,27,12,01,76.00
2014,06,27,12,02,71.40
2014,06,27,12,03,82.10
2014,06,27,12,04,86.70
2014,06,27,12,05,96.00
2014,06,27,12,06,97.80
2014,06,27,12,07,91.80
2014,06,27,12,08,109.70
2014,06,27,12,09,113.80
2014,06,27,12,10,107.00
2014,06,27,12,11,105.40
2014,06,27,12,12,117.70
2014,06,27,12,13,138.60
2014,06,27,12,14,135.60
2014,06,27,12,15,150.00
2014,06,27,12,16,143.60
2014,06,27,12,17,127.90
2014,06,27,12,18,133.40
2014,06,27,12,19,134.40
2014,06,27,12,20,139.40
2014,06,27,12,21,151.50
2014,06,27,12,22,148.00
2014,06,27,12,23,146.80
2014,06,27,12,24,152.30
2014,06,27,12,25,175.20
2014,06,27,12,26,166.90
2014,06,27,12,27,155.10
2014,06,27,12,28,146.70
2014,06,27,12,29,139.00
2014,06,27,12,30,151.80
2014,06,27,12,31,141.80
2014,06,27,12,32,157.00
2014,06,27,12,33,149.20
2014,06,27,12,34,143.20
2014,06,27,12,35,152.50
2014,06,27,12,36,136.80
2014,06,27,12,37,146.30
2014,06,27,12,38,139.00
2014,06,27,12,39,135.10
2014,06,27,12,40,138.90
2014,06,27,12,41,151.00
2014,06,27,12,42,151.00
2014,06,27,12,43,152.20
2014,06,27,12,44,178.80
2014,06,27,12,45,215.50
2014,06,27,12,46,197.00
2014,06,27,12,47,162.00
2014,06,27,12,48,155.20
2014,06,27,12,49,134.10
2014,06,27,12,50,132.50
2014,06,27,12,51,152.60
2014,06,27,12,52,141.10
2014,06,27,12,53,129.30
2014,06,27,12,54,143.00
2014,06,27,12,55,139.10
2014,06,27,12,56,151.80
2014,06,27,12,57,138.20
2014,06,27,12,58,135.20
2014,06,27,12,59,152.30
2014,06,27,13,00,180.60
2014,06,27,13,01,233.60
2014,06,27,13,02,238.20
2014,06,27,13,03,179.90
2014,06,27,13,04,184.20
2014,06,27,13,05,180.10
2014,06,27,13,06,184.20
2014,06,27,13,07,201.90
2014,06,27,13,08,208.20
2014,06,27,13,09,189.10
2014,06,27,13,10,192.30
2014,06,27,13,11,189.50
2014,06,27,13,12,203.20
2014,06,27,13,13,218.60
2014,06,27,13,14,205.50
2014,06,27,13,15,219.00
2014,06,27,13,16,225.70
2014,06,27,13,17,176.00
2014,06,27,13,18,147.20
2014,06,27,13,19,156.80
2014,06,27,13,20,154.10
2014,06,27,13,21,153.50
2014,06,27,13,22,143.40
2014,06,27,13,23,137.50
2014,06,27,13,24,164.90
2014,06,27,13,25,177.50
2014,06,27,13,26,178.00
2014,06,27,13,27,185.70
2014,06,27,13,28,210.10
2014,06,27,13,29,215.40
2014,06,27,13,30,214.00
2014,06,27,13,31,241.60
2014,06,27,13,32,275.50
2014,06,27,13,33,258.30
2014,06,27,13,34,219.90
2014,06,27,13,35,184.90
2014,06,27,13,36,174.20
2014,06,27,13,37,177.80
2014,06,27,13,38,189.40
2014,06,27,13,39,222.10
2014,06,27,13,40,283.70
2014,06,27,13,41,334.70
2014,06,27,13,42,384.40
2014,06,27,13,43,386.60
2014,06,27,13,44,361.80
2014,06,27,13,45,351.60
2014,06,27,13,46,359.10
2014,06,27,13,47,383.50
2014,06,27,13,48,353.00
2014,06,27,13,49,353.60
2014,06,27,13,50,354.10
2014,06,27,13,51,335.00
2014,06,27,13,52,277.20
2014,06,27,13,53,201.80
2014,06,27,13,54,154.00
2014,06,27,13,55,146.00
2014,06,27,13,56,151.40
2014,06,27,13,57,164.80
2014,06,27,13,58,163.50
2014,06,27,13,59,170.00
2014,06,27,14,00,169.50
2014,06,27,14,01,183.90
2014,06,27,14,02,197.40
2014,06,27,14,03,175.60
2014,06,27,14,04,176.90
2014,06,27,14,05,183.70
2014,06,27,14,06,178.00
2014,06,27,14,07,179.10
2014,06,27,14,08,179.50
2014,06,27,14,09,182.90
2014,06,27,14,10,177.80
2014,06,27,14,11,155.30
2014,06,27,14,12,134.50
2014,06,27,14,13,114.60
2014,06,27,14,14,96.50
2014,06,27,14,15,76.30
2014,06,27,14,16,63.60
2014,06,27,14,17,60.50
2014,06,27,14,18,65.40
2014,06,27,14,19,72.00
2014,06,27,14,20,70.20
2014,06,27,14,21,64.50
2014,06,27,14,22,58.80
2014,06,27,14,23,58.60
2014,06,27,14,24,65.60
2014,06,27,14,25,81.30
2014,06,27,14,26,103.70
2014,06,27,14,27,113.00
2014,06,27,14,28,98.70
2014,06,27,14,29,87.10
2014,06,27,14,30,98.40
2014,06,27,14,31,112.00
2014,06,27,14,32,104.80
2014,06,27,14,33,93.20
2014,06,27,14,34,92.70
2014,06,27,14,35,89.50
2014,06,27,14,36,82.90
2014,06,27,14,37,83.50
2014,06,27,14,38,89.20
2014,06,27,14,39,88.80
2014,06,27,14,40,78.40
2014,06,27,14,41,66.70
2014,06,27,14,42,56.20
2014,06,27,14,43,53.00
2014,06,27,14,44,57.80
2014,06,27,14,45,67.20
2014,06,27,14,46,71.80
2014,06,27,14,47,72.80
2014,06,27,14,48,76.30
2014,06,27,14,49,80.30
2014,06,27,14,50,88.50
2014,06,27,14,51,95.90
2014,06,27,14,52,96.40
2014,06,27,14,53,89.00
2014,06,27,14,54,80.10
2014,06,27,14,55,76.00
2014,06,27,14,56,71.10
2014,06,27,14,57,61.40
2014,06,27,14,58,50.70
2014,06,27,14,59,44.80
2014,06,27,15,00,41.20
2014,06,27,15,01,38.30
2014,06,27,15,02,34.10
2014,06,27,15,03,30.50
2014,06,27,15,04,28.30
2014,06,27,15,05,30.00
2014,06,27,15,06,31.20
2014,06,27,15,07,34.10
2014,06,27,15,08,36.40
2014,06,27,15,09,41.50
2014,06,27,15,10,49.20
2014,06,27,15,11,60.80
2014,06,27,15,12,69.20
2014,06,27,15,13,74.30
2014,06,27,15,14,76.80
2014,06,27,15,15,79.00
2014,06,27,15,16,83.50
2014,06,27,15,17,86.60
2014,06,27,15,18,89.30
2014,06,27,15,19,93.40
2014,06,27,15,20,97.20
2014,06,27,15,21,104.10
2014,06,27,15,22,112.00
2014,06,27,15,23,119.20
2014,06,27,15,24,129.70
2014,06,27,15,25,143.00
2014,06,27,15,26,157.50
2014,06,27,15,27,171.40
2014,06,27,15,28,184.80
2014,06,27,15,29,194.80
2014,06,27,15,30,204.50
2014,06,27,15,31,214.90
2014,06,27,15,32,225.60
2014,06,27,15,33,238.10
2014,06,27,15,34,249.80
2014,06,27,15,35,256.80
2014,06,27,15,36,260.00
2014,06,27,15,37,260.00
2014,06,27,15,38,260.00
2014,06,27,15,39,262.20
2014,06,27,15,40,264.80
2014,06,27,15,41,267.00
2014,06,27,15,42,267.00
2014,06,27,15,43,264.90
2014,06,27,15,44,256.40
2014,06,27,15,45,247.40
2014,06,27,15,46,242.40
2014,06,27,15,47,235.90
2014,06,27,15,48,224.80
2014,06,27,15,49,213.40
2014,06,27,15,50,208.90
2014,06,27,15,51,200.60
2014,06,27,15,52,193.40
2014,06,27,15,53,190.00
2014,06,27,15,54,190.00
2014,06,27,15,55,184.80
2014,06,27,15,56,174.60
2014,06,27,15,57,167.80
2014,06,27,15,58,161.90
2014,06,27,15,59,158.10
2014,06,27,16,00,154.20
2014,06,27,16,01,151.40
2014,06,27,16,02,151.00
2014,06,27,16,03,151.00
2014,06,27,16,04,151.70
2014,06,27,16,05,154.00
2014,06,27,16,06,158.20
2014,06,27,16,07,163.90
2014,06,27,16,08,168.90
2014,06,27,16,09,172.50
2014,06,27,16,10,174.00
2014,06,27,16,11,174.00
2014,06,27,16,12,172.10
2014,06,27,16,13,169.40
2014,06,27,16,14,168.80
2014,06,27,16,15,167.00
2014,06,27,16,16,167.80
2014,06,27,16,17,170.60
2014,06,27,16,18,174.70
2014,06,27,16,19,180.00
2014,06,27,16,20,189.10
2014,06,27,16,21,196.50
2014,06,27,16,22,202.50
2014,06,27,16,23,208.80
2014,06,27,16,24,214.50
2014,06,27,16,25,220.70
2014,06,27,16,26,230.90
2014,06,27,16,27,236.90
2014,06,27,16,28,239.80
2014,06,27,16,29,241.00
2014,06,27,16,30,241.00
2014,06,27,16,31,242.70
2014,06,27,16,32,241.00
2014,06,27,16,33,241.00
2014,06,27,16,34,241.90
2014,06,27,16,35,243.60
2014,06,27,16,36,245.50
2014,06,27,16,37,249.40
2014,06,27,16,38,250.20
2014,06,27,16,39,250.60
2014,06,27,16,40,252.50
2014,06,27,16,41,258.20
2014,06,27,16,42,263.00
2014,06,27,16,43,257.20
2014,06,27,16,44,252.40
2014,06,27,16,45,248.60
2014,06,27,16,46,245.00
2014,06,27,16,47,242.10
2014,06,27,16,48,235.80
2014,06,27,16,49,227.10
2014,06,27,16,50,220.20
2014,06,27,16,51,217.30
2014,06,27,16,52,216.00
2014,06,27,16,53,218.60
2014,06,27,16,54,222.40
2014,06,27,16,55,234.30
2014,06,27,16,56,237.00
2014,06,27,16,57,237.80
2014,06,27,16,58,240.10
2014,06,27,16,59,241.00
2014,06,27,17,00,243.40
2014,06,27,17,01,248.00
2014,06,27,17,02,248.00
2014,06,27,17,03,246.30
2014,06,27,17,04,240.10
2014,06,27,17,05,237.00
2014,06,27,17,06,223.40
2014,06,27,17,07,211.90
2014,06,27,17,08,203.30
2014,06,27,17,09,193.20
2014,06,27,17,10,183.10
2014,06,27,17,11,174.10
2014,06,27,17,12,164.40
2014,06,27,17,13,154.80
2014,06,27,17,14,145.90
2014,06,27,17,15,139.20
2014,06,27,17,16,133.80
2014,06,27,17,17,130.50
2014,06,27,17,18,128.20
2014,06,27,17,19,128.00
2014,06,27,17,20,128.60
2014,06,27,17,21,130.90
2014,06,27,17,22,133.20
2014,06,27,17,23,134.80